This is the latest recevied weather packets stored in our database for station/object KC3WWU. If no packets are shown the sender has not sent any weather packets the latest 10 day(s).
| Time | Temp. | Humidity | Pressure | Rain* | Wind** | Luminosity | Snow |
|---|---|---|---|---|---|---|---|
| 1778111708 | 8.89° C | 91% | 1009.4 hPa | 0 mm | - | 7 W/m² | - |
| 1778111403 | 8.89° C | 90% | 1009.3 hPa | 0 mm | - | 10 W/m² | - |
| 1778111101 | 8.89° C | 90% | 1009.3 hPa | 0 mm | - | 10 W/m² | - |
| 1778110799 | 8.89° C | 91% | 1009.3 hPa | 0 mm | - | 8 W/m² | - |
| 1778110496 | 8.89° C | 91% | 1009.3 hPa | 0 mm | - | 10 W/m² | - |
| 1778110191 | 8.89° C | 91% | 1009.1 hPa | 0 mm | - | 16 W/m² | - |
| 1778109888 | 8.89° C | 92% | 1009.1 hPa | 0 mm | - | 24 W/m² | - |
| 1778109583 | 8.89° C | 92% | 1009.2 hPa | 0 mm | - | 19 W/m² | - |
| 1778109281 | 8.89° C | 92% | 1009.1 hPa | 0 mm | - | 19 W/m² | - |
| 1778108978 | 8.89° C | 92% | 1008.8 hPa | 0 mm | - | 18 W/m² | - |
| 1778108674 | 8.89° C | 92% | 1008.9 hPa | 0 mm | - | 18 W/m² | - |
| 1778108371 | 9.44° C | 93% | 1008.9 hPa | 0 mm | - | 17 W/m² | - |
| 1778108068 | 9.44° C | 92% | 1008.8 hPa | 0 mm | - | 23 W/m² | - |
| 1778107765 | 9.44° C | 92% | 1009 hPa | 0 mm | - | 21 W/m² | - |
| 1778107463 | 8.89° C | 92% | 1008.7 hPa | 0 mm | - | 23 W/m² | - |
| 1778107159 | 9.44° C | 94% | 1008.7 hPa | 0 mm | - | 25 W/m² | - |
| 1778106854 | 9.44° C | 94% | 1008.9 hPa | 0 mm | - | 25 W/m² | - |
| 1778106552 | 9.44° C | 94% | 1008.8 hPa | 0 mm | - | 22 W/m² | - |
| 1778106248 | 8.89° C | 93% | 1008.9 hPa | 0 mm | - | 20 W/m² | - |
| 1778105945 | 9.44° C | 93% | 1009 hPa | 0 mm | - | 13 W/m² | - |
| 1778105643 | 9.44° C | 93% | 1008.9 hPa | 0 mm | - | 16 W/m² | - |
| 1778105340 | 9.44° C | 92% | 1008.7 hPa | 0 mm | - | 14 W/m² | - |
| 1778105035 | 9.44° C | 92% | 1008.8 hPa | 0 mm | - | 15 W/m² | - |
| 1778104732 | 9.44° C | 93% | 1008.4 hPa | 0 mm | - | 20 W/m² | - |
| 1778104428 | 9.44° C | 93% | 1008.2 hPa | 0 mm | - | 20 W/m² | - |
* Rain latest hour (hover to see other rain measurements)
** Current wind speed in m/s (hover to see current wind gust speed)